Time,TemperatureF,DewpointF,PressureIn,WindDirection,WindDirectionDegrees,WindSpeedMPH,WindSpeedGustMPH,Humidity,HourlyPrecipIn,Conditions,Clouds,dailyrainin,SoftwareType,DateUTC
2013-07-18 00:00:00,75.3,71.0,29.59,SW,225,0.0,2.0,88,0.00,,,0.00,Rainwise IP-100,2013-07-18 04:00:00,
2013-07-18 00:01:00,75.3,71.0,29.60,SW,225,0.0,1.0,88,0.00,,,0.00,Rainwise IP-100,2013-07-18 04:01:00,
2013-07-18 00:06:00,75.2,71.0,29.60,North,360,2.0,2.0,88,0.00,,,0.00,Rainwise IP-100,2013-07-18 04:06:00,
2013-07-18 00:11:00,75.1,71.0,29.60,NNW,337,0.0,2.0,88,0.00,,,0.00,Rainwise IP-100,2013-07-18 04:11:00,
2013-07-18 00:16:00,75.0,71.0,29.60,NE,45,5.0,8.0,89,0.00,,,0.00,Rainwise IP-100,2013-07-18 04:16:00,
2013-07-18 00:21:00,74.7,71.0,29.60,NNW,337,2.0,7.0,90,0.00,,,0.00,Rainwise IP-100,2013-07-18 04:21:00,
2013-07-18 00:26:00,74.4,71.0,29.60,NNE,22,4.0,4.0,90,0.00,,,0.00,Rainwise IP-100,2013-07-18 04:26:00,
2013-07-18 00:31:00,74.4,71.0,29.61,North,360,3.0,5.0,91,0.00,,,0.00,Rainwise IP-100,2013-07-18 04:31:00,
2013-07-18 00:36:00,74.4,71.0,29.61,NNE,22,3.0,5.0,91,0.00,,,0.00,Rainwise IP-100,2013-07-18 04:36:00,
2013-07-18 00:41:00,74.4,71.0,29.61,NNW,337,4.0,4.0,91,0.00,,,0.00,Rainwise IP-100,2013-07-18 04:41:00,
2013-07-18 00:46:00,74.4,72.0,29.61,North,360,4.0,4.0,92,0.00,,,0.00,Rainwise IP-100,2013-07-18 04:46:00,
2013-07-18 00:51:00,74.4,72.0,29.60,ENE,67,3.0,4.0,92,0.00,,,0.00,Rainwise IP-100,2013-07-18 04:51:00,
2013-07-18 00:56:00,74.4,72.0,29.61,NNE,22,2.0,4.0,92,0.00,,,0.00,Rainwise IP-100,2013-07-18 04:56:00,
2013-07-18 01:02:00,74.3,72.0,29.60,NNW,337,4.0,4.0,92,0.00,,,0.00,Rainwise IP-100,2013-07-18 05:02:00,
2013-07-18 01:07:00,74.3,72.0,29.60,WSW,247,0.0,4.0,92,0.00,,,0.00,Rainwise IP-100,2013-07-18 05:07:00,
2013-07-18 01:12:00,74.3,72.0,29.61,WNW,292,3.0,4.0,92,0.00,,,0.00,Rainwise IP-100,2013-07-18 05:12:00,
2013-07-18 01:17:00,74.2,72.0,29.60,North,360,0.0,4.0,92,0.00,,,0.00,Rainwise IP-100,2013-07-18 05:17:00,
2013-07-18 01:22:00,74.1,71.0,29.60,WSW,247,3.0,3.0,92,0.00,,,0.00,Rainwise IP-100,2013-07-18 05:22:00,
2013-07-18 01:27:00,73.9,72.0,29.60,WSW,247,1.0,2.0,93,0.00,,,0.00,Rainwise IP-100,2013-07-18 05:27:00,
2013-07-18 01:32:00,73.8,71.0,29.60,WSW,247,0.0,1.0,93,0.00,,,0.00,Rainwise IP-100,2013-07-18 05:32:00,
2013-07-18 01:37:00,73.6,72.0,29.60,NNW,337,0.0,2.0,94,0.00,,,0.00,Rainwise IP-100,2013-07-18 05:37:00,
2013-07-18 01:42:00,73.4,71.0,29.60,SW,225,0.0,2.0,94,0.00,,,0.00,Rainwise IP-100,2013-07-18 05:42:00,
2013-07-18 01:47:00,73.3,72.0,29.59,ENE,67,1.0,2.0,95,0.00,,,0.00,Rainwise IP-100,2013-07-18 05:47:00,
2013-07-18 01:52:00,73.1,71.0,29.59,ENE,67,0.0,2.0,95,0.00,,,0.00,Rainwise IP-100,2013-07-18 05:52:00,
2013-07-18 01:57:00,73.0,72.0,29.59,West,270,0.0,1.0,96,0.00,,,0.00,Rainwise IP-100,2013-07-18 05:57:00,
2013-07-18 02:02:00,73.0,72.0,29.59,West,270,0.0,1.0,96,0.00,,,0.00,Rainwise IP-100,2013-07-18 06:02:00,
2013-07-18 02:07:00,72.9,72.0,29.58,NNW,337,0.0,0.0,97,0.00,,,0.00,Rainwise IP-100,2013-07-18 06:07:00,
2013-07-18 02:11:00,72.8,72.0,29.59,NNW,337,0.0,1.0,97,0.00,,,0.00,Rainwise IP-100,2013-07-18 06:11:00,
2013-07-18 02:16:00,72.8,72.0,29.59,NE,45,2.0,3.0,97,0.00,,,0.00,Rainwise IP-100,2013-07-18 06:16:00,
2013-07-18 02:21:00,72.7,72.0,29.58,NE,45,0.0,2.0,97,0.00,,,0.00,Rainwise IP-100,2013-07-18 06:21:00,
2013-07-18 02:26:00,72.6,72.0,29.59,NE,45,0.0,0.0,98,0.00,,,0.00,Rainwise IP-100,2013-07-18 06:26:00,
2013-07-18 02:31:00,72.5,72.0,29.59,NE,45,2.0,2.0,98,0.00,,,0.00,Rainwise IP-100,2013-07-18 06:31:00,
2013-07-18 02:36:00,72.4,71.0,29.58,NE,45,0.0,2.0,98,0.00,,,0.00,Rainwise IP-100,2013-07-18 06:36:00,
2013-07-18 02:41:00,72.3,71.0,29.59,North,360,0.0,2.0,98,0.00,,,0.00,Rainwise IP-100,2013-07-18 06:41:00,
2013-07-18 02:46:00,72.1,71.0,29.58,North,360,0.0,1.0,98,0.00,,,0.00,Rainwise IP-100,2013-07-18 06:46:00,
2013-07-18 02:51:00,72.0,71.0,29.59,North,360,0.0,0.0,98,0.00,,,0.00,Rainwise IP-100,2013-07-18 06:51:00,
2013-07-18 02:57:00,71.9,71.0,29.59,North,360,0.0,0.0,98,0.00,,,0.00,Rainwise IP-100,2013-07-18 06:57:00,
2013-07-18 03:02:00,71.8,71.0,29.59,North,360,2.0,2.0,99,0.00,,,0.00,Rainwise IP-100,2013-07-18 07:02:00,
2013-07-18 03:07:00,71.7,71.0,29.59,North,360,0.0,1.0,99,0.00,,,0.00,Rainwise IP-100,2013-07-18 07:07:00,
2013-07-18 03:12:00,71.5,71.0,29.59,North,360,0.0,0.0,99,0.00,,,0.00,Rainwise IP-100,2013-07-18 07:12:00,
2013-07-18 03:17:00,71.4,71.0,29.59,NNW,337,3.0,3.0,99,0.00,,,0.00,Rainwise IP-100,2013-07-18 07:17:00,
2013-07-18 03:22:00,71.5,71.0,29.59,WSW,247,0.0,2.0,99,0.00,,,0.00,Rainwise IP-100,2013-07-18 07:22:00,
2013-07-18 03:27:00,71.5,71.0,29.58,WSW,247,0.0,0.0,99,0.00,,,0.00,Rainwise IP-100,2013-07-18 07:27:00,
2013-07-18 03:32:00,71.4,71.0,29.58,WSW,247,0.0,0.0,99,0.00,,,0.00,Rainwise IP-100,2013-07-18 07:32:00,
2013-07-18 03:37:00,71.3,71.0,29.58,WSW,247,0.0,0.0,99,0.00,,,0.00,Rainwise IP-100,2013-07-18 07:37:00,
2013-07-18 03:42:00,71.1,70.0,29.59,WSW,247,1.0,0.0,99,0.00,,,0.00,Rainwise IP-100,2013-07-18 07:42:00,
2013-07-18 03:47:00,71.0,70.0,29.58,WSW,247,0.0,1.0,99,0.00,,,0.00,Rainwise IP-100,2013-07-18 07:47:00,
2013-07-18 03:52:00,70.9,70.0,29.59,WSW,247,0.0,0.0,99,0.00,,,0.00,Rainwise IP-100,2013-07-18 07:52:00,
2013-07-18 03:57:00,70.7,70.0,29.59,WSW,247,0.0,0.0,99,0.00,,,0.00,Rainwise IP-100,2013-07-18 07:57:00,
2013-07-18 04:02:00,70.8,70.0,29.59,WSW,247,2.0,0.0,100,0.00,,,0.00,Rainwise IP-100,2013-07-18 08:02:00,
2013-07-18 04:07:00,70.8,70.0,29.59,WSW,247,0.0,2.0,100,0.00,,,0.00,Rainwise IP-100,2013-07-18 08:07:00,
2013-07-18 04:13:00,70.7,70.0,29.59,WSW,247,0.0,0.0,100,0.00,,,0.00,Rainwise IP-100,2013-07-18 08:13:00,
2013-07-18 04:18:00,70.5,70.0,29.59,WSW,247,0.0,0.0,100,0.00,,,0.00,Rainwise IP-100,2013-07-18 08:18:00,
2013-07-18 04:23:00,70.4,70.0,29.59,WSW,247,0.0,0.0,100,0.00,,,0.00,Rainwise IP-100,2013-07-18 08:23:00,
2013-07-18 04:28:00,70.3,70.0,29.59,WSW,247,0.0,0.0,100,0.00,,,0.00,Rainwise IP-100,2013-07-18 08:28:00,
2013-07-18 04:33:00,70.3,70.0,29.59,WSW,247,0.0,0.0,100,0.00,,,0.00,Rainwise IP-100,2013-07-18 08:33:00,
2013-07-18 04:38:00,70.3,70.0,29.59,NNW,337,2.0,2.0,100,0.00,,,0.00,Rainwise IP-100,2013-07-18 08:38:00,
2013-07-18 04:43:00,70.2,70.0,29.59,NNW,337,2.0,3.0,100,0.00,,,0.00,Rainwise IP-100,2013-07-18 08:43:00,
2013-07-18 04:48:00,70.0,70.0,29.59,NNE,22,3.0,3.0,100,0.00,,,0.00,Rainwise IP-100,2013-07-18 08:48:00,
2013-07-18 04:53:00,69.8,69.0,29.59,North,360,3.0,3.0,100,0.00,,,0.00,Rainwise IP-100,2013-07-18 08:53:00,
2013-07-18 04:58:00,69.8,69.0,29.59,NNW,337,4.0,4.0,100,0.00,,,0.00,Rainwise IP-100,2013-07-18 08:58:00,
2013-07-18 05:03:00,69.9,70.0,29.59,NNE,22,2.0,4.0,100,0.00,,,0.00,Rainwise IP-100,2013-07-18 09:03:00,
2013-07-18 05:08:00,70.1,70.0,29.59,NNE,22,4.0,5.0,100,0.00,,,0.00,Rainwise IP-100,2013-07-18 09:08:00,
2013-07-18 05:13:00,70.2,70.0,29.60,NNE,22,2.0,5.0,100,0.00,,,0.00,Rainwise IP-100,2013-07-18 09:13:00,
2013-07-18 05:18:00,70.3,70.0,29.61,North,360,4.0,5.0,100,0.00,,,0.00,Rainwise IP-100,2013-07-18 09:18:00,
2013-07-18 05:23:00,70.3,70.0,29.61,NNE,22,1.0,4.0,100,0.00,,,0.00,Rainwise IP-100,2013-07-18 09:23:00,
2013-07-18 05:29:00,70.3,70.0,29.61,NNE,22,2.0,3.0,100,0.00,,,0.00,Rainwise IP-100,2013-07-18 09:29:00,
2013-07-18 05:34:00,70.2,70.0,29.61,NNW,337,3.0,3.0,100,0.00,,,0.00,Rainwise IP-100,2013-07-18 09:34:00,
2013-07-18 05:39:00,70.1,70.0,29.61,NNW,337,2.0,4.0,100,0.00,,,0.00,Rainwise IP-100,2013-07-18 09:39:00,
2013-07-18 05:44:00,70.0,70.0,29.62,NNE,22,3.0,4.0,100,0.00,,,0.00,Rainwise IP-100,2013-07-18 09:44:00,
2013-07-18 05:49:00,69.9,70.0,29.61,NNW,337,3.0,3.0,100,0.00,,,0.00,Rainwise IP-100,2013-07-18 09:49:00,
2013-07-18 05:54:00,69.9,70.0,29.61,NNW,337,3.0,3.0,100,0.00,,,0.00,Rainwise IP-100,2013-07-18 09:54:00,
2013-07-18 05:59:00,69.9,70.0,29.61,NNW,337,3.0,3.0,100,0.00,,,0.00,Rainwise IP-100,2013-07-18 09:59:00,
2013-07-18 06:04:00,69.8,69.0,29.61,NNW,337,3.0,3.0,100,0.00,,,0.00,Rainwise IP-100,2013-07-18 10:04:00,
2013-07-18 06:09:00,69.8,69.0,29.61,NNW,337,2.0,3.0,100,0.00,,,0.00,Rainwise IP-100,2013-07-18 10:09:00,
2013-07-18 06:14:00,69.8,69.0,29.61,NNW,337,0.0,2.0,100,0.00,,,0.00,Rainwise IP-100,2013-07-18 10:14:00,
2013-07-18 06:19:00,69.9,70.0,29.61,NNW,337,2.0,2.0,100,0.00,,,0.00,Rainwise IP-100,2013-07-18 10:19:00,
2013-07-18 06:24:00,69.9,70.0,29.62,NNW,337,0.0,1.0,100,0.00,,,0.00,Rainwise IP-100,2013-07-18 10:24:00,
2013-07-18 06:29:00,69.9,70.0,29.62,NNW,337,0.0,0.0,100,0.00,,,0.00,Rainwise IP-100,2013-07-18 10:29:00,
2013-07-18 06:34:00,70.0,70.0,29.62,NNW,337,1.0,1.0,100,0.00,,,0.00,Rainwise IP-100,2013-07-18 10:34:00,
2013-07-18 06:39:00,70.2,70.0,29.62,NNW,337,0.0,1.0,100,0.00,,,0.00,Rainwise IP-100,2013-07-18 10:39:00,
2013-07-18 06:45:00,70.2,70.0,29.62,ESE,112,0.0,1.0,100,0.00,,,0.00,Rainwise IP-100,2013-07-18 10:45:00,
2013-07-18 06:50:00,70.1,70.0,29.62,ESE,112,0.0,1.0,100,0.00,,,0.00,Rainwise IP-100,2013-07-18 10:50:00,
2013-07-18 06:53:00,70.0,70.0,29.63,ESE,112,0.0,1.0,100,0.00,,,0.00,Rainwise IP-100,2013-07-18 10:53:00,
2013-07-18 06:58:00,70.0,70.0,29.62,ENE,67,0.0,2.0,100,0.00,,,0.00,Rainwise IP-100,2013-07-18 10:58:00,
2013-07-18 07:03:00,70.1,70.0,29.63,NNE,22,1.0,3.0,100,0.00,,,0.00,Rainwise IP-100,2013-07-18 11:03:00,
2013-07-18 07:09:00,70.2,70.0,29.63,NNE,22,0.0,1.0,100,0.00,,,0.00,Rainwise IP-100,2013-07-18 11:09:00,
2013-07-18 07:14:00,70.2,70.0,29.62,NNE,22,2.0,3.0,100,0.00,,,0.00,Rainwise IP-100,2013-07-18 11:14:00,
2013-07-18 07:19:00,70.2,70.0,29.62,NNW,337,2.0,2.0,100,0.00,,,0.00,Rainwise IP-100,2013-07-18 11:19:00,
2013-07-18 07:24:00,70.3,70.0,29.62,NE,45,1.0,3.0,100,0.00,,,0.00,Rainwise IP-100,2013-07-18 11:24:00,
2013-07-18 07:29:00,70.3,70.0,29.63,ENE,67,2.0,2.0,100,0.00,,,0.00,Rainwise IP-100,2013-07-18 11:29:00,
2013-07-18 07:34:00,70.4,70.0,29.63,NNE,22,1.0,2.0,100,0.00,,,0.00,Rainwise IP-100,2013-07-18 11:34:00,
2013-07-18 07:39:00,70.5,70.0,29.63,ENE,67,3.0,3.0,100,0.00,,,0.00,Rainwise IP-100,2013-07-18 11:39:00,
2013-07-18 07:44:00,70.4,70.0,29.62,NE,45,1.0,3.0,100,0.00,,,0.00,Rainwise IP-100,2013-07-18 11:44:00,
2013-07-18 07:49:00,70.5,70.0,29.63,ENE,67,1.0,2.0,100,0.00,,,0.00,Rainwise IP-100,2013-07-18 11:49:00,
2013-07-18 07:54:00,70.6,70.0,29.63,ENE,67,2.0,3.0,100,0.00,,,0.00,Rainwise IP-100,2013-07-18 11:54:00,
2013-07-18 07:59:00,70.8,70.0,29.63,ESE,112,0.0,2.0,100,0.00,,,0.00,Rainwise IP-100,2013-07-18 11:59:00,
2013-07-18 08:04:00,71.6,71.0,29.63,ESE,112,0.0,1.0,100,0.00,,,0.00,Rainwise IP-100,2013-07-18 12:04:00,
2013-07-18 08:09:00,72.8,72.0,29.62,ENE,67,2.0,2.0,100,0.00,,,0.00,Rainwise IP-100,2013-07-18 12:09:00,
2013-07-18 08:14:00,73.8,73.0,29.63,ENE,67,1.0,2.0,100,0.00,,,0.00,Rainwise IP-100,2013-07-18 12:14:00,
2013-07-18 08:19:00,74.0,74.0,29.63,ENE,67,4.0,4.0,100,0.00,,,0.00,Rainwise IP-100,2013-07-18 12:19:00,
2013-07-18 08:25:00,73.3,73.0,29.62,ENE,67,2.0,4.0,100,0.00,,,0.00,Rainwise IP-100,2013-07-18 12:25:00,
2013-07-18 08:30:00,72.9,73.0,29.63,ENE,67,2.0,3.0,100,0.00,,,0.00,Rainwise IP-100,2013-07-18 12:30:00,
2013-07-18 08:35:00,73.5,73.0,29.63,ENE,67,2.0,2.0,100,0.00,,,0.00,Rainwise IP-100,2013-07-18 12:35:00,
2013-07-18 08:40:00,74.0,74.0,29.63,NE,45,2.0,3.0,100,0.00,,,0.00,Rainwise IP-100,2013-07-18 12:40:00,
2013-07-18 08:45:00,74.6,74.0,29.62,NE,45,0.0,3.0,100,0.00,,,0.00,Rainwise IP-100,2013-07-18 12:45:00,
2013-07-18 08:50:00,75.0,74.0,29.62,NNE,22,0.0,3.0,99,0.00,,,0.00,Rainwise IP-100,2013-07-18 12:50:00,
2013-07-18 08:55:00,75.3,74.0,29.62,NNE,22,1.0,3.0,98,0.00,,,0.00,Rainwise IP-100,2013-07-18 12:55:00,
2013-07-18 09:00:00,76.1,74.0,29.63,ENE,67,2.0,4.0,95,0.00,,,0.00,Rainwise IP-100,2013-07-18 13:00:00,
2013-07-18 09:05:00,75.8,73.0,29.62,ENE,67,3.0,7.0,93,0.00,,,0.00,Rainwise IP-100,2013-07-18 13:05:00,
2013-07-18 09:10:00,75.7,72.0,29.62,NNE,22,2.0,4.0,91,0.00,,,0.00,Rainwise IP-100,2013-07-18 13:10:00,
2013-07-18 09:15:00,77.0,74.0,29.62,NNE,22,3.0,6.0,90,0.00,,,0.00,Rainwise IP-100,2013-07-18 13:15:00,
2013-07-18 09:20:00,77.5,73.0,29.62,ENE,67,5.0,5.0,88,0.00,,,0.00,Rainwise IP-100,2013-07-18 13:20:00,
2013-07-18 09:25:00,76.7,72.0,29.62,ENE,67,4.0,6.0,86,0.00,,,0.00,Rainwise IP-100,2013-07-18 13:25:00,
2013-07-18 09:30:00,76.2,71.0,29.62,ENE,67,6.0,7.0,85,0.00,,,0.00,Rainwise IP-100,2013-07-18 13:30:00,
2013-07-18 09:35:00,76.3,71.0,29.61,ENE,67,6.0,7.0,84,0.00,,,0.00,Rainwise IP-100,2013-07-18 13:35:00,
2013-07-18 09:41:00,76.4,70.0,29.61,ENE,67,5.0,6.0,82,0.00,,,0.00,Rainwise IP-100,2013-07-18 13:41:00,
2013-07-18 09:46:00,76.6,70.0,29.61,ENE,67,5.0,5.0,82,0.00,,,0.00,Rainwise IP-100,2013-07-18 13:46:00,
2013-07-18 09:51:00,77.0,71.0,29.61,ENE,67,3.0,4.0,81,0.00,,,0.00,Rainwise IP-100,2013-07-18 13:51:00,
2013-07-18 09:56:00,77.6,71.0,29.61,ENE,67,4.0,4.0,80,0.00,,,0.00,Rainwise IP-100,2013-07-18 13:56:00,
2013-07-18 10:01:00,77.8,71.0,29.61,ENE,67,5.0,6.0,80,0.00,,,0.00,Rainwise IP-100,2013-07-18 14:01:00,
2013-07-18 10:06:00,77.6,71.0,29.61,ENE,67,4.0,5.0,79,0.00,,,0.00,Rainwise IP-100,2013-07-18 14:06:00,
2013-07-18 10:11:00,78.0,71.0,29.61,ENE,67,2.0,4.0,79,0.00,,,0.00,Rainwise IP-100,2013-07-18 14:11:00,
2013-07-18 10:16:00,78.3,71.0,29.61,ENE,67,5.0,5.0,79,0.00,,,0.00,Rainwise IP-100,2013-07-18 14:16:00,
2013-07-18 10:21:00,78.6,71.0,29.61,ENE,67,3.0,5.0,78,0.00,,,0.00,Rainwise IP-100,2013-07-18 14:21:00,
2013-07-18 10:26:00,79.1,71.0,29.61,NNE,22,1.0,3.0,77,0.00,,,0.00,Rainwise IP-100,2013-07-18 14:26:00,
2013-07-18 10:31:00,80.0,71.0,29.60,NE,45,1.0,3.0,76,0.00,,,0.00,Rainwise IP-100,2013-07-18 14:31:00,
2013-07-18 10:36:00,80.3,71.0,29.60,NNE,22,2.0,3.0,75,0.00,,,0.00,Rainwise IP-100,2013-07-18 14:36:00,
2013-07-18 10:41:00,80.7,72.0,29.60,NE,45,2.0,2.0,75,0.00,,,0.00,Rainwise IP-100,2013-07-18 14:41:00,
2013-07-18 10:46:00,81.3,72.0,29.60,NE,45,3.0,3.0,74,0.00,,,0.00,Rainwise IP-100,2013-07-18 14:46:00,
2013-07-18 10:51:00,81.7,72.0,29.60,ENE,67,2.0,3.0,73,0.00,,,0.00,Rainwise IP-100,2013-07-18 14:51:00,
2013-07-18 10:57:00,81.8,71.0,29.60,ENE,67,3.0,3.0,72,0.00,,,0.00,Rainwise IP-100,2013-07-18 14:57:00,
2013-07-18 11:02:00,81.7,71.0,29.60,NE,45,3.0,3.0,71,0.00,,,0.00,Rainwise IP-100,2013-07-18 15:02:00,
2013-07-18 11:07:00,82.0,71.0,29.60,NNE,22,3.0,3.0,70,0.00,,,0.00,Rainwise IP-100,2013-07-18 15:07:00,
2013-07-18 11:12:00,82.7,71.0,29.59,NE,45,2.0,3.0,69,0.00,,,0.00,Rainwise IP-100,2013-07-18 15:12:00,
2013-07-18 11:17:00,84.3,73.0,29.60,NNE,22,0.0,3.0,69,0.00,,,0.00,Rainwise IP-100,2013-07-18 15:17:00,
2013-07-18 11:22:00,84.8,73.0,29.59,SE,135,2.0,3.0,68,0.00,,,0.00,Rainwise IP-100,2013-07-18 15:22:00,
2013-07-18 11:27:00,85.3,73.0,29.59,NE,45,1.0,2.0,67,0.00,,,0.00,Rainwise IP-100,2013-07-18 15:27:00,
2013-07-18 11:32:00,85.8,73.0,29.59,NNE,22,3.0,3.0,66,0.00,,,0.00,Rainwise IP-100,2013-07-18 15:32:00,
2013-07-18 11:37:00,84.9,72.0,29.59,NE,45,4.0,5.0,65,0.00,,,0.00,Rainwise IP-100,2013-07-18 15:37:00,
2013-07-18 11:42:00,83.9,71.0,29.59,NE,45,4.0,4.0,64,0.00,,,0.00,Rainwise IP-100,2013-07-18 15:42:00,
2013-07-18 11:47:00,83.6,70.0,29.59,NE,45,2.0,4.0,64,0.00,,,0.00,Rainwise IP-100,2013-07-18 15:47:00,
2013-07-18 11:52:00,84.0,71.0,29.58,ENE,67,3.0,4.0,65,0.00,,,0.00,Rainwise IP-100,2013-07-18 15:52:00,
2013-07-18 11:57:00,84.6,71.0,29.58,ENE,67,1.0,4.0,65,0.00,,,0.00,Rainwise IP-100,2013-07-18 15:57:00,
2013-07-18 12:02:00,85.1,71.0,29.58,ENE,67,3.0,3.0,64,0.00,,,0.00,Rainwise IP-100,2013-07-18 16:02:00,
2013-07-18 12:07:00,86.2,72.0,29.58,SE,135,0.0,3.0,63,0.00,,,0.00,Rainwise IP-100,2013-07-18 16:07:00,
2013-07-18 12:13:00,87.6,73.0,29.58,SSW,202,5.0,5.0,62,0.00,,,0.00,Rainwise IP-100,2013-07-18 16:13:00,
2013-07-18 12:18:00,88.2,73.0,29.58,ESE,112,2.0,5.0,61,0.00,,,0.00,Rainwise IP-100,2013-07-18 16:18:00,
2013-07-18 12:23:00,87.9,73.0,29.58,SSW,202,0.0,4.0,61,0.00,,,0.00,Rainwise IP-100,2013-07-18 16:23:00,
2013-07-18 12:28:00,88.2,73.0,29.58,ENE,67,2.0,2.0,61,0.00,,,0.00,Rainwise IP-100,2013-07-18 16:28:00,
2013-07-18 12:33:00,87.8,72.0,29.57,NNE,22,4.0,4.0,60,0.00,,,0.00,Rainwise IP-100,2013-07-18 16:33:00,
2013-07-18 12:38:00,87.1,71.0,29.57,ENE,67,4.0,6.0,60,0.00,,,0.00,Rainwise IP-100,2013-07-18 16:38:00,
2013-07-18 12:43:00,86.8,71.0,29.57,ESE,112,4.0,5.0,59,0.00,,,0.00,Rainwise IP-100,2013-07-18 16:43:00,
2013-07-18 12:48:00,87.4,71.0,29.57,ENE,67,0.0,4.0,59,0.00,,,0.00,Rainwise IP-100,2013-07-18 16:48:00,
2013-07-18 12:53:00,88.6,72.0,29.57,SSE,157,2.0,3.0,58,0.00,,,0.00,Rainwise IP-100,2013-07-18 16:53:00,
2013-07-18 12:58:00,89.1,72.0,29.57,ESE,112,1.0,3.0,57,0.00,,,0.00,Rainwise IP-100,2013-07-18 16:58:00,
2013-07-18 13:03:00,87.8,71.0,29.57,ESE,112,2.0,3.0,58,0.00,,,0.00,Rainwise IP-100,2013-07-18 17:03:00,
2013-07-18 13:08:00,87.0,71.0,29.57,SW,225,2.0,2.0,59,0.00,,,0.00,Rainwise IP-100,2013-07-18 17:08:00,
2013-07-18 13:13:00,88.1,72.0,29.57,SSE,157,2.0,4.0,60,0.00,,,0.00,Rainwise IP-100,2013-07-18 17:13:00,
2013-07-18 13:18:00,88.7,72.0,29.57,SSW,202,2.0,4.0,59,0.00,,,0.00,Rainwise IP-100,2013-07-18 17:18:00,
2013-07-18 13:23:00,89.1,72.0,29.57,SSW,202,0.0,3.0,59,0.00,,,0.00,Rainwise IP-100,2013-07-18 17:23:00,
2013-07-18 13:29:00,89.6,73.0,29.57,SSE,157,0.0,5.0,60,0.00,,,0.00,Rainwise IP-100,2013-07-18 17:29:00,
2013-07-18 13:34:00,89.3,72.0,29.57,SW,225,2.0,5.0,58,0.00,,,0.00,Rainwise IP-100,2013-07-18 17:34:00,
2013-07-18 13:39:00,89.1,72.0,29.56,SSW,202,0.0,3.0,57,0.00,,,0.00,Rainwise IP-100,2013-07-18 17:39:00,
2013-07-18 13:44:00,89.2,72.0,29.57,WNW,292,3.0,4.0,57,0.00,,,0.00,Rainwise IP-100,2013-07-18 17:44:00,
2013-07-18 13:49:00,88.9,72.0,29.57,ENE,67,2.0,4.0,57,0.00,,,0.00,Rainwise IP-100,2013-07-18 17:49:00,
2013-07-18 13:54:00,88.8,71.0,29.57,SSE,157,0.0,4.0,57,0.00,,,0.00,Rainwise IP-100,2013-07-18 17:54:00,
2013-07-18 13:59:00,89.2,72.0,29.56,WNW,292,5.0,7.0,57,0.00,,,0.00,Rainwise IP-100,2013-07-18 17:59:00,
2013-07-18 14:04:00,89.6,71.0,29.56,NNW,337,4.0,6.0,56,0.00,,,0.00,Rainwise IP-100,2013-07-18 18:04:00,
2013-07-18 14:09:00,89.5,71.0,29.56,SSW,202,5.0,5.0,54,0.00,,,0.00,Rainwise IP-100,2013-07-18 18:09:00,
2013-07-18 14:14:00,89.4,70.0,29.56,ESE,112,0.0,6.0,53,0.00,,,0.00,Rainwise IP-100,2013-07-18 18:14:00,
2013-07-18 14:19:00,89.8,70.0,29.55,ENE,67,2.0,7.0,53,0.00,,,0.00,Rainwise IP-100,2013-07-18 18:19:00,
2013-07-18 14:24:00,90.5,71.0,29.55,SSE,157,4.0,4.0,53,0.00,,,0.00,Rainwise IP-100,2013-07-18 18:24:00,
2013-07-18 14:29:00,91.3,71.0,29.55,SSW,202,4.0,4.0,52,0.00,,,0.00,Rainwise IP-100,2013-07-18 18:29:00,
2013-07-18 14:34:00,92.0,71.0,29.55,North,360,4.0,6.0,51,0.00,,,0.00,Rainwise IP-100,2013-07-18 18:34:00,
2013-07-18 14:39:00,92.3,71.0,29.54,WSW,247,6.0,6.0,51,0.00,,,0.00,Rainwise IP-100,2013-07-18 18:39:00,
2013-07-18 14:45:00,92.1,71.0,29.54,SSE,157,6.0,6.0,50,0.00,,,0.00,Rainwise IP-100,2013-07-18 18:45:00,
2013-07-18 14:50:00,91.1,69.0,29.54,SSW,202,4.0,9.0,49,0.00,,,0.00,Rainwise IP-100,2013-07-18 18:50:00,
2013-07-18 14:55:00,90.2,69.0,29.54,SSW,202,5.0,8.0,50,0.00,,,0.00,Rainwise IP-100,2013-07-18 18:55:00,
2013-07-18 15:00:00,90.4,69.0,29.54,WSW,247,2.0,6.0,50,0.00,,,0.00,Rainwise IP-100,2013-07-18 19:00:00,
2013-07-18 15:05:00,90.8,69.0,29.54,SSW,202,0.0,2.0,50,0.00,,,0.00,Rainwise IP-100,2013-07-18 19:05:00,
2013-07-18 15:10:00,90.7,70.0,29.53,SW,225,4.0,4.0,51,0.00,,,0.00,Rainwise IP-100,2013-07-18 19:10:00,
2013-07-18 15:15:00,90.4,71.0,29.52,SSE,157,0.0,4.0,53,0.00,,,0.00,Rainwise IP-100,2013-07-18 19:15:00,
2013-07-18 15:20:00,90.3,71.0,29.52,West,270,1.0,4.0,53,0.00,,,0.00,Rainwise IP-100,2013-07-18 19:20:00,
2013-07-18 15:25:00,90.2,71.0,29.52,WSW,247,1.0,3.0,54,0.00,,,0.00,Rainwise IP-100,2013-07-18 19:25:00,
2013-07-18 15:30:00,89.8,72.0,29.52,WSW,247,2.0,2.0,56,0.00,,,0.00,Rainwise IP-100,2013-07-18 19:30:00,
2013-07-18 15:35:00,89.2,72.0,29.53,WSW,247,1.0,1.0,57,0.00,,,0.00,Rainwise IP-100,2013-07-18 19:35:00,
2013-07-18 15:40:00,88.6,72.0,29.52,SSW,202,1.0,2.0,58,0.00,,,0.00,Rainwise IP-100,2013-07-18 19:40:00,
2013-07-18 15:45:00,87.7,71.0,29.53,SSW,202,1.0,1.0,59,0.00,,,0.00,Rainwise IP-100,2013-07-18 19:45:00,
2013-07-18 15:50:00,86.8,71.0,29.52,SSW,202,0.0,1.0,59,0.00,,,0.00,Rainwise IP-100,2013-07-18 19:50:00,
2013-07-18 15:55:00,86.1,71.0,29.53,NNW,337,3.0,3.0,61,0.00,,,0.00,Rainwise IP-100,2013-07-18 19:55:00,
2013-07-18 16:01:00,85.5,72.0,29.53,NNW,337,0.0,3.0,64,0.00,,,0.00,Rainwise IP-100,2013-07-18 20:01:00,
2013-07-18 16:06:00,85.1,72.0,29.52,NNW,337,0.0,0.0,65,0.00,,,0.00,Rainwise IP-100,2013-07-18 20:06:00,
2013-07-18 16:11:00,84.7,72.0,29.52,SW,225,0.0,2.0,66,0.00,,,0.00,Rainwise IP-100,2013-07-18 20:11:00,
2013-07-18 16:16:00,84.1,73.0,29.53,West,270,2.0,2.0,70,0.00,,,0.00,Rainwise IP-100,2013-07-18 20:16:00,
2013-07-18 16:21:00,82.9,74.0,29.53,WNW,292,0.0,3.0,76,0.00,,,0.00,Rainwise IP-100,2013-07-18 20:21:00,
2013-07-18 16:26:00,81.9,74.0,29.53,NNW,337,3.0,4.0,79,0.00,,,0.00,Rainwise IP-100,2013-07-18 20:26:00,
2013-07-18 16:31:00,81.0,74.0,29.53,NW,315,1.0,4.0,81,0.00,,,0.00,Rainwise IP-100,2013-07-18 20:31:00,
2013-07-18 16:36:00,80.3,74.0,29.54,SSW,202,0.0,1.0,83,0.06,,,0.01,Rainwise IP-100,2013-07-18 20:36:00,
2013-07-18 16:41:00,79.6,74.0,29.55,SE,135,5.0,7.0,84,0.06,,,0.01,Rainwise IP-100,2013-07-18 20:41:00,
2013-07-18 16:46:00,78.8,73.0,29.54,ESE,112,4.0,7.0,84,0.00,,,0.01,Rainwise IP-100,2013-07-18 20:46:00,
2013-07-18 16:51:00,78.5,73.0,29.55,SSW,202,6.0,8.0,83,0.00,,,0.01,Rainwise IP-100,2013-07-18 20:51:00,
2013-07-18 16:56:00,77.9,72.0,29.54,SE,135,6.0,6.0,83,0.06,,,0.02,Rainwise IP-100,2013-07-18 20:56:00,
2013-07-18 17:01:00,76.9,71.0,29.54,South,180,6.0,6.0,83,0.06,,,0.02,Rainwise IP-100,2013-07-18 21:01:00,
2013-07-18 17:06:00,76.1,71.0,29.54,ESE,112,4.0,9.0,84,0.00,,,0.02,Rainwise IP-100,2013-07-18 21:06:00,
2013-07-18 17:11:00,75.6,71.0,29.54,SSE,157,4.0,8.0,86,0.00,,,0.02,Rainwise IP-100,2013-07-18 21:11:00,
2013-07-18 17:17:00,75.4,71.0,29.54,SSE,157,3.0,7.0,86,0.00,,,0.02,Rainwise IP-100,2013-07-18 21:17:00,
2013-07-18 17:22:00,75.4,71.0,29.55,SW,225,1.0,6.0,87,0.00,,,0.02,Rainwise IP-100,2013-07-18 21:22:00,
2013-07-18 17:27:00,75.4,71.0,29.54,East,90,2.0,2.0,87,0.00,,,0.02,Rainwise IP-100,2013-07-18 21:27:00,
2013-07-18 17:32:00,75.9,72.0,29.54,SSW,202,0.0,2.0,88,0.00,,,0.02,Rainwise IP-100,2013-07-18 21:32:00,
2013-07-18 17:37:00,76.4,73.0,29.55,NNE,22,1.0,2.0,89,0.00,,,0.02,Rainwise IP-100,2013-07-18 21:37:00,
2013-07-18 17:42:00,76.2,72.0,29.56,ENE,67,1.0,3.0,88,0.00,,,0.02,Rainwise IP-100,2013-07-18 21:42:00,
2013-07-18 17:47:00,76.0,71.0,29.56,NNW,337,0.0,4.0,86,0.00,,,0.02,Rainwise IP-100,2013-07-18 21:47:00,
2013-07-18 17:52:00,76.1,71.0,29.56,North,360,5.0,5.0,84,0.00,,,0.02,Rainwise IP-100,2013-07-18 21:52:00,
2013-07-18 17:57:00,76.1,71.0,29.56,SSW,202,1.0,6.0,84,0.00,,,0.02,Rainwise IP-100,2013-07-18 21:57:00,
2013-07-18 18:02:00,76.2,71.0,29.56,SSE,157,0.0,3.0,84,0.00,,,0.02,Rainwise IP-100,2013-07-18 22:02:00,
2013-07-18 18:07:00,76.3,71.0,29.56,North,360,0.0,2.0,85,0.00,,,0.02,Rainwise IP-100,2013-07-18 22:07:00,
2013-07-18 18:12:00,76.4,71.0,29.56,WSW,247,2.0,3.0,84,0.00,,,0.02,Rainwise IP-100,2013-07-18 22:12:00,
2013-07-18 18:17:00,76.3,71.0,29.57,NW,315,3.0,4.0,85,0.00,,,0.02,Rainwise IP-100,2013-07-18 22:17:00,
2013-07-18 18:22:00,76.2,71.0,29.57,SSW,202,1.0,4.0,85,0.00,,,0.02,Rainwise IP-100,2013-07-18 22:22:00,
2013-07-18 18:27:00,76.2,71.0,29.56,ENE,67,2.0,2.0,86,0.00,,,0.02,Rainwise IP-100,2013-07-18 22:27:00,
2013-07-18 18:33:00,75.9,71.0,29.56,ESE,112,0.0,2.0,87,0.00,,,0.02,Rainwise IP-100,2013-07-18 22:33:00,
2013-07-18 18:38:00,75.8,71.0,29.56,NNW,337,7.0,7.0,88,0.00,,,0.02,Rainwise IP-100,2013-07-18 22:38:00,
2013-07-18 18:43:00,76.0,71.0,29.58,NNE,22,7.0,0.0,87,0.00,,,0.02,Rainwise IP-100,2013-07-18 22:43:00,
2013-07-18 18:48:00,75.7,71.0,29.57,NNW,337,5.0,5.0,85,0.00,,,0.02,Rainwise IP-100,2013-07-18 22:48:00,
2013-07-18 18:53:00,75.0,70.0,29.57,NNE,22,0.0,7.0,84,0.00,,,0.02,Rainwise IP-100,2013-07-18 22:53:00,
2013-07-18 18:58:00,74.3,69.0,29.56,NNW,337,2.0,4.0,85,0.00,,,0.02,Rainwise IP-100,2013-07-18 22:58:00,
2013-07-18 19:03:00,74.1,69.0,29.56,ENE,67,3.0,3.0,86,0.00,,,0.02,Rainwise IP-100,2013-07-18 23:03:00,
2013-07-18 19:08:00,73.6,70.0,29.56,NE,45,4.0,6.0,88,0.00,,,0.02,Rainwise IP-100,2013-07-18 23:08:00,
2013-07-18 19:13:00,73.0,69.0,29.55,ENE,67,3.0,5.0,89,0.00,,,0.02,Rainwise IP-100,2013-07-18 23:13:00,
2013-07-18 19:18:00,72.7,69.0,29.55,NNW,337,3.0,4.0,89,0.00,,,0.02,Rainwise IP-100,2013-07-18 23:18:00,
2013-07-18 19:23:00,72.7,69.0,29.56,NNE,22,4.0,4.0,90,0.00,,,0.02,Rainwise IP-100,2013-07-18 23:23:00,
2013-07-18 19:28:00,72.7,69.0,29.57,SW,225,2.0,6.0,90,0.00,,,0.02,Rainwise IP-100,2013-07-18 23:28:00,
2013-07-18 19:33:00,72.6,69.0,29.57,SSW,202,6.0,6.0,90,0.00,,,0.02,Rainwise IP-100,2013-07-18 23:33:00,
2013-07-18 19:38:00,72.5,70.0,29.57,SSW,202,3.0,6.0,91,0.00,,,0.02,Rainwise IP-100,2013-07-18 23:38:00,
2013-07-18 19:43:00,72.6,70.0,29.57,SW,225,2.0,4.0,91,0.00,,,0.02,Rainwise IP-100,2013-07-18 23:43:00,
2013-07-18 19:49:00,72.6,70.0,29.56,SSW,202,1.0,4.0,91,0.00,,,0.02,Rainwise IP-100,2013-07-18 23:49:00,
2013-07-18 19:54:00,72.6,70.0,29.56,SSW,202,3.0,4.0,91,0.00,,,0.02,Rainwise IP-100,2013-07-18 23:54:00,
2013-07-18 19:59:00,72.6,70.0,29.56,SSE,157,2.0,3.0,91,0.00,,,0.02,Rainwise IP-100,2013-07-18 23:59:00,
2013-07-18 20:04:00,72.6,70.0,29.56,WNW,292,3.0,3.0,91,0.00,,,0.02,Rainwise IP-100,2013-07-19 00:04:00,
2013-07-18 20:09:00,72.6,70.0,29.55,WNW,292,0.0,3.0,91,0.00,,,0.02,Rainwise IP-100,2013-07-19 00:09:00,
2013-07-18 20:14:00,72.6,70.0,29.56,WSW,247,0.0,1.0,92,0.00,,,0.02,Rainwise IP-100,2013-07-19 00:14:00,
2013-07-18 20:19:00,72.5,70.0,29.56,SSW,202,2.0,2.0,92,0.00,,,0.02,Rainwise IP-100,2013-07-19 00:19:00,
2013-07-18 20:24:00,72.5,70.0,29.56,SSW,202,0.0,1.0,92,0.00,,,0.02,Rainwise IP-100,2013-07-19 00:24:00,
2013-07-18 20:29:00,72.3,70.0,29.57,SW,225,2.0,3.0,92,0.00,,,0.02,Rainwise IP-100,2013-07-19 00:29:00,
2013-07-18 20:34:00,72.1,69.0,29.56,SW,225,0.0,2.0,93,0.00,,,0.02,Rainwise IP-100,2013-07-19 00:34:00,
2013-07-18 20:39:00,72.0,69.0,29.56,SW,225,0.0,1.0,93,0.00,,,0.02,Rainwise IP-100,2013-07-19 00:39:00,
2013-07-18 20:44:00,72.1,70.0,29.56,SW,225,0.0,0.0,94,0.00,,,0.02,Rainwise IP-100,2013-07-19 00:44:00,
2013-07-18 20:49:00,72.0,70.0,29.56,SW,225,0.0,0.0,94,0.00,,,0.02,Rainwise IP-100,2013-07-19 00:49:00,
2013-07-18 20:54:00,72.0,70.0,29.56,SW,225,0.0,0.0,94,0.00,,,0.02,Rainwise IP-100,2013-07-19 00:54:00,
2013-07-18 20:59:00,72.0,70.0,29.56,SW,225,2.0,3.0,94,0.00,,,0.02,Rainwise IP-100,2013-07-19 00:59:00,
2013-07-18 21:05:00,72.1,70.0,29.56,SW,225,3.0,3.0,95,0.00,,,0.02,Rainwise IP-100,2013-07-19 01:05:00,
2013-07-18 21:10:00,72.1,70.0,29.56,SSW,202,2.0,3.0,95,0.00,,,0.02,Rainwise IP-100,2013-07-19 01:10:00,
2013-07-18 21:15:00,72.3,70.0,29.56,SW,225,4.0,4.0,94,0.00,,,0.02,Rainwise IP-100,2013-07-19 01:15:00,
2013-07-18 21:20:00,72.3,70.0,29.56,SW,225,4.0,7.0,94,0.00,,,0.02,Rainwise IP-100,2013-07-19 01:20:00,
2013-07-18 21:25:00,72.3,70.0,29.56,SSW,202,4.0,6.0,93,0.00,,,0.02,Rainwise IP-100,2013-07-19 01:25:00,
2013-07-18 21:30:00,72.3,70.0,29.56,SW,225,2.0,5.0,93,0.00,,,0.02,Rainwise IP-100,2013-07-19 01:30:00,
2013-07-18 21:35:00,72.2,70.0,29.56,SSW,202,3.0,5.0,93,0.00,,,0.02,Rainwise IP-100,2013-07-19 01:35:00,
2013-07-18 21:40:00,72.1,69.0,29.57,SSW,202,3.0,3.0,93,0.00,,,0.02,Rainwise IP-100,2013-07-19 01:40:00,
2013-07-18 21:45:00,72.1,70.0,29.56,SW,225,2.0,4.0,94,0.00,,,0.02,Rainwise IP-100,2013-07-19 01:45:00,
2013-07-18 21:50:00,72.0,70.0,29.57,WSW,247,0.0,3.0,94,0.00,,,0.02,Rainwise IP-100,2013-07-19 01:50:00,
2013-07-18 21:55:00,72.0,70.0,29.57,WSW,247,0.0,1.0,94,0.00,,,0.02,Rainwise IP-100,2013-07-19 01:55:00,
2013-07-18 22:00:00,72.0,70.0,29.57,WSW,247,0.0,0.0,94,0.00,,,0.02,Rainwise IP-100,2013-07-19 02:00:00,
2013-07-18 22:05:00,71.9,70.0,29.57,WSW,247,0.0,0.0,94,0.00,,,0.02,Rainwise IP-100,2013-07-19 02:05:00,
2013-07-18 22:10:00,71.8,69.0,29.56,SE,135,0.0,0.0,94,0.00,,,0.02,Rainwise IP-100,2013-07-19 02:10:00,
2013-07-18 22:15:00,71.7,69.0,29.57,SE,135,0.0,0.0,94,0.00,,,0.02,Rainwise IP-100,2013-07-19 02:15:00,
2013-07-18 22:21:00,71.6,70.0,29.56,WSW,247,0.0,1.0,95,0.00,,,0.02,Rainwise IP-100,2013-07-19 02:21:00,
2013-07-18 22:26:00,71.6,70.0,29.55,WSW,247,0.0,1.0,95,0.00,,,0.02,Rainwise IP-100,2013-07-19 02:26:00,
2013-07-18 22:31:00,71.5,70.0,29.56,WSW,247,2.0,2.0,95,0.00,,,0.02,Rainwise IP-100,2013-07-19 02:31:00,
2013-07-18 22:36:00,71.4,69.0,29.55,WSW,247,2.0,2.0,95,0.00,,,0.02,Rainwise IP-100,2013-07-19 02:36:00,
2013-07-18 22:41:00,71.3,70.0,29.56,SW,225,2.0,2.0,96,0.00,,,0.02,Rainwise IP-100,2013-07-19 02:41:00,
2013-07-18 22:46:00,71.1,69.0,29.55,SW,225,0.0,1.0,96,0.00,,,0.02,Rainwise IP-100,2013-07-19 02:46:00,
2013-07-18 22:51:00,71.1,69.0,29.56,SW,225,0.0,0.0,96,0.00,,,0.02,Rainwise IP-100,2013-07-19 02:51:00,
2013-07-18 22:56:00,70.9,69.0,29.56,SW,225,0.0,0.0,96,0.00,,,0.02,Rainwise IP-100,2013-07-19 02:56:00,
2013-07-18 23:01:00,70.8,69.0,29.55,SW,225,0.0,0.0,96,0.00,,,0.02,Rainwise IP-100,2013-07-19 03:01:00,
2013-07-18 23:06:00,70.7,69.0,29.55,SW,225,0.0,1.0,97,0.00,,,0.02,Rainwise IP-100,2013-07-19 03:06:00,
2013-07-18 23:11:00,70.7,69.0,29.55,SW,225,0.0,1.0,97,0.00,,,0.02,Rainwise IP-100,2013-07-19 03:11:00,
2013-07-18 23:16:00,70.7,69.0,29.55,SW,225,0.0,0.0,97,0.00,,,0.02,Rainwise IP-100,2013-07-19 03:16:00,
2013-07-18 23:21:00,70.6,69.0,29.54,SW,225,0.0,0.0,97,0.00,,,0.02,Rainwise IP-100,2013-07-19 03:21:00,
2013-07-18 23:26:00,70.5,70.0,29.55,SW,225,0.0,0.0,98,0.00,,,0.02,Rainwise IP-100,2013-07-19 03:26:00,
2013-07-18 23:31:00,70.5,70.0,29.54,SW,225,0.0,0.0,98,0.00,,,0.02,Rainwise IP-100,2013-07-19 03:31:00,
2013-07-18 23:37:00,70.5,70.0,29.54,SW,225,0.0,0.0,98,0.00,,,0.02,Rainwise IP-100,2013-07-19 03:37:00,
2013-07-18 23:42:00,70.4,70.0,29.54,SW,225,0.0,0.0,98,0.00,,,0.02,Rainwise IP-100,2013-07-19 03:42:00,
2013-07-18 23:47:00,70.3,69.0,29.54,SW,225,0.0,0.0,98,0.00,,,0.02,Rainwise IP-100,2013-07-19 03:47:00,
2013-07-18 23:52:00,70.3,69.0,29.54,NNE,22,3.0,3.0,98,0.00,,,0.02,Rainwise IP-100,2013-07-19 03:52:00,
2013-07-18 23:57:00,70.3,69.0,29.54,North,360,0.0,2.0,98,0.00,,,0.02,Rainwise IP-100,2013-07-19 03:57:00,